SCP
0 0 0 0 0 0 0 0 0 0 0 0 0 0 0 0 0 0 0 0 0 0 0 1 1 1 1 1 1 1 1 2 2 2 2 2 1 1 1 0 0 0 0 0
0 0 0 0 0 0 0 0 0 0 0 0 0 0 0 0 0 0 0 0 0 0 1 1 2 2 2 2 2 2 2 2 2 2 2 2 2 1 1 1 0 0 0 0
0 0 0 0 0 0 0 0 0 0 0 0 0 0 0 0 0 0 0 0 0 1 1 2 3 3 4 3 3 3 3 3 3 3 3 3 2 2 1 1 1 0 0 0
0 0 0 0 0 0 0 0 0 0 0 0 0 0 0 0 0 0 0 0 0 1 2 3 3 4 5 5 4 4 4 4 4 3 3 3 2 2 1 1 1 0 0 0
0 0 0 0 0 0 0 0 0 0 0 0 0 0 0 0 0 0 0 0 1 1 2 3 4 4 5 5 5 4 4 4 4 3 3 2 2 1 1 1 1 1 0 0
0 0 0 0 0 0 0 0 0 0 0 0 0 0 0 0 0 0 0 0 1 1 2 2 3 4 4 5 5 5 4 4 3 3 2 2 2 1 1 1 1 1 1 0
0 0 0 0 0 0 0 0 0 0 0 0 0 0 0 0 0 0 0 0 0 1 1 2 2 3 4 5 5 4 4 3 3 2 2 1 1 1 1 1 1 1 1 0
0 0 0 0 0 0 0 0 0 0 0 0 0 0 0 0 0 0 0 0 0 1 1 1 2 3 3 3 3 3 2 2 2 1 1 1 1 1 1 1 1 1 0 0
0 0 0 0 0 0 0 0 0 0 0 0 0 0 0 0 0 0 0 0 0 1 1 1 1 2 2 2 2 2 2 1 1 1 1 1 1 1 1 1 0 0 0 0
0 0 0 0 0 0 0 0 0 0 0 0 0 0 0 0 0 0 0 0 0 1 1 1 1 1 1 1 1 1 1 1 1 1 1 1 1 1 1 0 0 0 0 0
0 0 0 0 0 0 0 0 0 0 0 0 0 0 0 0 0 0 0 0 0 0 0 0 0 1 1 1 1 1 1 1 1 1 1 1 1 1 0 0 0 0 0 0
0 0 0 0 0 0 0 0 0 0 0 0 0 0 0 0 0 0 0 0 0 0 0 0 0 0 0 0 0 1 1 1 1 1 1 1 1 1 0 0 0 0 0 0
0 0 0 0 0 0 0 0 0 0 0 0 0 0 0 0 0 0 0 0 0 0 0 0 0 0 0 0 0 0 1 1 1 1 1 1 1 1 1 0 0 0 0 0
0 0 0 0 0 0 0 0 0 0 0 0 0 0 0 0 0 0 0 0 0 0 0 0 0 0 0 0 0 1 1 1 1 1 1 1 1 1 1 0 0 0 0 0
0 0 0 0 0 0 0 0 0 0 0 0 0 0 0 0 0 0 0 0 0 0 0 0 0 0 0 0 0 0 1 1 1 1 1 1 1 1 1 0 0 0 0 0
0 0 0 0 0 0 0 0 0 0 0 0 0 0 0 0 0 0 0 0 0 0 0 0 0 0 0 0 0 0 0 1 1 1 1 1 1 1 1 0 0 0 0 0
0 0 0 0 0 0 0 0 0 0 0 0 0 0 0 0 0 0 0 0 0 0 0 0 0 0 0 0 0 0 0 0 1 1 1 1 1 1 1 0 0 1 1 1
0 0 0 0 0 0 0 0 0 0 0 0 0 0 0 0 0 0 0 0 0 0 0 0 0 0 0 0 0 0 0 0 0 1 1 1 1 1 1 0 1 0 0 0
0 0 0 0 0 0 0 0 0 0 0 0 0 0 0 0 0 0 0 0 0 0 0 0 0 0 0 0 0 0 0 0 0 0 0 1 1 0 0 0 1 0 0 0
0 0 0 0 0 0 0 0 0 0 0 0 0 0 0 0 0 0 0 0 0 0 0 0 0 0 0 0 0 0 0 0 0 0 0 0 0 0 0 0 0 1 0 0
0 0 0 0 0 0 0 0 0 0 0 0 0 0 0 0 0 0 0 0 0 0 0 0 0 0 0 0 0 0 0 0 0 0 0 0 0 0 0 0 0 0 0 0
0 0 0 0 0 0 0 0 0 0 0 0 0 0 0 0 0 0 0 0 0 0 0 0 0 0 0 0 0 0 0 0 0 0 0 0 0 0 0 0 0 0 0 0
0 0 0 0 0 0 0 0 0 0 0 0 0 0 0 0 0 0 0 0 0 0 0 0 0 0 0 0 0 0 0 0 0 0 0 0 0 0 0 0 0 0 0 0
0 0 0 0 0 0 0 0 0 0 0 0 0 0 0 0 0 0 0 0 0 0 0 0 0 0 0 0 0 0 0 0 0 0 0 0 0 0 0 0 0 0 0 0
0 0 0 0 0 0 0 0 0 0 0 0 0 0 0 0 0 0 0 0 0 0 0 0 0 0 0 0 0 0 0 0 0 0 0 0 0 0 0 0 0 0 0 0
0 0 0 0 0 0 0 0 0 0 0 0 0 0 0 0 0 0 0 0 0 0 0 0 0 0 0 0 0 0 0 0 0 0 0 0 0 0 0 0 0 0 0 0
Wind_Speed
1 2 2 5 5 5 3 4 6 5 3 3 5 7 10 8 5 6 6 4 5 5 5 4 10 12 12 12 12 12 11 11 9 7 6 6 5 5 4 4 6 6 6 6
3 3 8 5 3 2 2 3 4 4 3 3 5 9 9 7 6 6 6 6 6 5 3 1 5 9 11 12 11 11 10 10 10 8 6 4 4 3 3 2 4 5 6 6
3 6 5 3 3 3 3 4 4 4 4 4 5 8 7 6 5 6 6 6 6 6 5 4 6 8 9 10 10 10 9 9 8 7 5 4 4 3 2 2 3 4 5 5
4 5 2 3 5 5 5 6 5 2 1 4 2 6 9 7 8 8 7 6 6 6 5 5 7 8 9 8 8 9 9 8 7 8 7 7 5 5 5 4 3 3 4 5
5 4 3 4 6 5 6 3 2 1 1 2 2 3 8 7 10 13 11 8 4 5 7 8 8 9 9 8 8 8 9 8 7 7 8 7 5 4 3 3 4 4 4 4
6 4 1 3 4 1 1 4 4 4 4 2 4 4 5 7 11 16 16 13 7 2 3 6 8 9 8 8 7 9 9 7 7 7 6 7 6 5 4 4 4 4 3 3
8 6 6 6 8 8 6 5 4 4 2 5 3 2 1 7 11 13 16 16 11 6 2 3 6 8 8 8 7 7 9 7 6 6 6 6 6 6 6 5 5 4 3 3
6 7 7 8 5 4 3 3 3 3 4 4 3 1 2 7 11 13 14 15 16 12 8 5 5 5 6 6 5 6 7 6 6 5 5 4 5 4 3 4 4 4 4 4
5 6 8 8 7 4 4 2 1 3 2 3 4 0 2 13 16 18 18 17 16 14 11 9 7 4 4 5 4 5 5 5 5 5 4 4 5 4 4 4 4 3 3 3
2 5 6 7 8 7 3 1 3 2 0 2 3 4 7 14 16 17 18 16 14 11 10 9 8 6 4 2 0 2 4 5 4 5 4 4 5 5 4 4 4 4 4 3
4 2 7 7 5 5 5 4 2 1 1 1 1 2 5 9 11 13 14 13 11 9 7 7 5 4 2 2 2 3 3 4 4 4 4 4 4 4 4 3 4 4 3 4
4 3 4 5 4 4 3 2 1 2 0 0 1 1 5 8 9 10 11 11 10 8 5 3 4 4 4 4 3 3 2 3 4 4 4 4 4 3 4 4 3 4 4 4
3 5 5 8 7 7 5 5 2 1 1 1 2 2 6 7 9 9 10 10 8 7 4 2 3 5 5 4 4 3 2 2 2 3 3 2 3 3 3 4 4 4 4 3
4 4 2 2 4 4 6 8 6 1 2 2 3 3 9 13 13 12 11 9 7 6 4 2 3 4 4 4 4 4 4 2 2 3 3 1 2 2 3 3 3 4 4 4
4 2 2 4 7 8 11 13 12 9 5 4 4 4 10 13 11 11 12 11 11 10 9 6 4 3 3 3 4 4 4 2 1 2 2 2 2 1 2 3 3 2 3 3
4 2 3 5 7 12 15 17 14 11 10 8 6 6 11 12 10 11 14 15 14 12 10 9 7 6 6 5 4 4 5 4 3 3 2 2 1 1 2 3 2 2 2 2
4 3 3 2 2 3 10 11 10 9 10 8 8 8 13 13 13 11 12 13 11 11 10 9 7 6 6 5 5 5 6 6 7 6 4 3 2 0 2 2 1 2 2 2
2 2 2 2 4 6 2 4 5 4 7 9 8 10 12 13 11 6 8 11 11 10 8 7 6 6 5 5 6 6 7 8 8 7 5 4 3 2 2 1 0 1 1 2
3 3 3 3 3 2 2 4 4 3 2 7 10 12 14 15 8 5 10 13 9 7 5 4 4 4 5 6 5 7 7 7 7 6 5 4 4 4 4 3 2 2 1 1
6 6 5 4 3 1 4 7 6 3 1 5 9 11 12 12 8 8 15 15 11 8 4 4 4 5 5 4 5 7 6 6 5 4 4 4 4 4 4 4 3 2 1 1
5 6 5 3 2 1 4 6 4 3 5 8 6 7 8 5 5 11 15 13 9 6 3 2 4 3 2 2 5 5 4 4 3 3 4 4 4 4 4 3 3 3 2 2
2 2 2 2 1 3 3 3 3 3 4 4 5 5 7 8 10 11 11 11 10 6 3 1 2 1 0 1 3 4 3 3 2 3 4 4 5 4 4 5 5 5 4 4
3 5 4 4 5 4 2 2 3 4 3 4 4 7 7 8 9 10 10 10 9 6 4 2 1 1 1 0 2 2 3 3 3 4 4 4 4 5 5 5 6 5 5 4
2 3 3 1 2 3 3 2 2 2 4 5 6 7 7 7 9 11 10 9 8 7 5 3 1 1 2 2 1 0 1 3 4 4 3 2 4 4 5 5 5 4 5 4
6 3 3 2 2 2 1 2 3 3 5 6 6 6 6 7 8 7 7 8 8 6 5 4 2 2 3 3 3 2 1 3 4 3 2 2 2 3 4 4 5 4 4 4
6 7 7 6 6 5 4 4 3 3 5 6 6 6 7 5 7 7 7 7 7 7 6 5 4 3 3 3 4 3 2 3 4 2 1 0 1 1 2 2 3 6 6 8
Wind_Direction
243 99 243 238 207 207 230 252 270 270 281 302 276 277 282 285 284 283 286 285 276 270 267 215 188 180 174 174 172 174 171 170 165 165 165 167 178 181 186 192 184 178 178 177
27 252 240 230 213 214 236 270 281 285 292 293 281 279 274 268 256 250 256 254 248 253 274 184 154 160 162 167 170 168 167 166 169 171 167 162 152 155 170 184 185 181 175 179
236 247 243 227 238 250 257 235 238 262 316 336 322 304 299 302 314 311 282 250 232 231 214 164 137 141 141 147 158 164 161 160 162 153 129 111 92 83 115 188 201 194 184 184
274 264 253 248 251 227 248 237 213 224 354 299 348 300 299 312 331 334 322 292 240 218 190 153 136 127 126 132 140 143 145 148 152 147 150 155 162 175 194 186 192 193 187 185
281 284 274 263 256 223 224 223 198 192 159 303 287 239 293 345 349 338 332 317 274 213 178 159 144 128 123 129 134 135 135 140 149 154 160 163 169 179 170 166 182 195 196 193
273 299 353 294 307 41 92 51 33 45 72 297 252 203 308 0 348 346 346 347 337 305 177 153 134 125 126 126 128 131 132 138 146 150 156 164 171 174 172 183 188 194 196 195
338 353 16 19 10 4 31 62 15 349 359 254 264 173 14 358 2 2 358 358 359 6 26 108 118 121 125 128 132 133 134 142 150 152 163 174 178 181 188 188 190 187 191 197
8 329 358 11 6 319 318 130 173 228 242 282 313 204 98 9 5 6 7 9 15 17 26 46 84 103 111 115 131 139 143 151 159 164 177 183 180 179 190 190 184 191 198 203
3 305 333 360 1 13 357 341 215 175 251 274 279 6 27 2 4 5 4 8 10 10 18 21 29 50 105 127 151 154 156 166 172 174 182 191 186 182 190 193 187 194 199 197
36 301 319 346 14 20 26 34 52 80 215 261 315 32 355 347 347 349 352 355 356 1 10 15 14 11 9 3 263 167 169 180 185 179 182 182 181 181 183 179 189 195 194 185
41 17 327 355 9 342 11 34 46 94 144 164 337 28 355 329 330 334 334 334 335 351 360 1 352 348 333 308 277 242 204 194 192 187 178 163 168 169 167 172 189 187 180 176
359 80 327 312 317 3 57 43 87 129 101 106 126 3 335 322 322 330 328 332 334 336 336 323 303 284 274 266 267 271 246 218 211 197 178 171 167 162 169 181 186 176 179 187
13 60 2 344 344 356 17 6 352 166 135 133 119 355 336 335 340 339 337 332 330 331 319 278 257 264 274 283 294 302 303 261 240 191 174 177 169 174 193 198 195 186 184 188
68 72 87 320 317 347 3 7 6 63 98 87 74 28 350 356 353 350 349 345 344 347 349 332 267 264 280 298 311 312 307 275 221 180 154 175 235 226 228 213 203 198 187 183
64 41 358 57 70 63 46 32 35 47 50 78 73 31 354 346 346 351 360 10 20 21 19 14 356 334 335 341 345 339 326 312 190 153 153 188 228 266 271 257 229 215 200 194
33 24 26 68 84 67 48 29 28 34 35 45 39 20 349 340 349 5 10 15 20 17 19 21 25 33 31 26 17 11 18 29 82 108 129 156 134 261 269 259 248 222 217 208
351 29 50 16 332 44 37 9 16 36 30 20 20 348 337 344 348 358 4 6 11 11 13 20 27 39 43 44 46 39 35 45 58 62 53 46 48 349 275 268 250 243 226 208
1 40 84 52 35 54 321 295 330 17 40 22 0 344 345 336 316 317 1 359 357 359 6 15 25 38 42 50 53 55 52 52 53 50 43 36 34 3 342 23 25 262 231 202
59 87 75 66 73 89 335 330 330 306 13 13 352 345 347 340 335 336 352 351 343 344 356 18 36 54 53 50 52 57 50 49 51 44 35 27 28 27 23 17 350 312 290 249
39 59 77 63 78 62 292 302 305 215 272 357 346 340 342 352 8 330 329 332 331 339 355 26 38 51 52 42 54 57 45 40 35 29 26 24 33 41 30 12 357 344 339 306
12 20 44 59 82 272 273 306 2 73 294 312 317 320 327 330 282 289 308 317 321 325 340 49 56 58 56 60 64 55 38 20 356 20 33 31 30 39 31 15 1 355 359 8
123 71 32 63 49 273 300 35 60 243 261 284 297 300 303 299 298 305 313 319 323 324 325 39 82 62 11 90 77 51 11 337 1 40 43 38 30 30 29 24 17 15 19 29
169 181 184 184 211 227 193 169 216 225 268 280 283 290 295 302 306 313 315 319 319 315 314 300 194 214 290 238 109 55 337 353 45 61 55 49 46 37 30 31 24 20 19 25
254 168 134 171 223 186 177 202 248 251 260 273 279 286 292 296 303 310 313 320 323 321 314 310 293 239 267 256 227 224 357 50 81 80 71 62 60 49 38 33 29 30 22 18
215 174 151 205 221 176 259 269 271 284 290 293 295 289 289 295 303 306 313 319 324 319 315 313 294 253 253 241 233 241 110 93 96 99 86 67 70 77 63 51 35 29 29 19
200 169 169 206 208 185 235 255 267 291 298 298 306 310 311 306 306 313 315 315 321 322 317 315 301 270 255 231 226 232 188 130 122 119 109 95 100 101 106 96 63 38 39 37